This is the latest recevied weather packets stored in our database for station/object WD4IXD. If no packets are shown the sender has not sent any weather packets the latest 10 day(s).
| Time | Temp. | Humidity | Pressure | Rain* | Wind** | Luminosity | Snow |
|---|---|---|---|---|---|---|---|
| 1777654815 | 12.22° C | 39% | 1021.3 hPa | 0 mm | - | 821 W/m² | - |
| 1777654504 | 12.78° C | 38% | 1021.3 hPa | 0 mm | - | 239 W/m² | - |
| 1777654204 | 12.78° C | 37% | 1021.3 hPa | 0 mm | - | 190 W/m² | - |
| 1777653915 | 12.78° C | 40% | 1021.4 hPa | 0 mm | - | 271 W/m² | - |
| 1777653604 | 13.33° C | 39% | 1021.3 hPa | 0 mm | - | 269 W/m² | - |
| 1777653315 | 13.33° C | 39% | 1021.3 hPa | 0 mm | - | 313 W/m² | - |
| 1777653004 | 13.33° C | 41% | 1021.4 hPa | 0 mm | - | 243 W/m² | - |
| 1777652715 | 12.78° C | 44% | 1021.4 hPa | 0 mm | - | 260 W/m² | - |
| 1777652404 | 12.22° C | 47% | 1021.4 hPa | 0 mm | - | 772 W/m² | - |
| 1777652115 | 12.22° C | 47% | 1021.4 hPa | 0 mm | - | 788 W/m² | - |
| 1777651804 | 11.67° C | 46% | 1021.4 hPa | 0 mm | - | 707 W/m² | - |
| 1777651515 | 11.67° C | 49% | 1021.3 hPa | 0 mm | - | 654 W/m² | - |
| 1777651203 | 11.67° C | 49% | 1021.3 hPa | 0 mm | - | 619 W/m² | - |
| 1777650915 | 11.67° C | 51% | 1021.3 hPa | 0 mm | - | 589 W/m² | - |
| 1777650604 | 11.11° C | 52% | 1021.3 hPa | 0 mm | - | 578 W/m² | - |
| 1777650315 | 10.56° C | 53% | 1021.3 hPa | 0 mm | - | 587 W/m² | - |
| 1777650004 | 10.56° C | 56% | 1021.3 hPa | 0 mm | - | 591 W/m² | - |
| 1777649715 | 10.56° C | 55% | 1021.3 hPa | 0 mm | - | 594 W/m² | - |
| 1777649404 | 10.56° C | 59% | 1021.4 hPa | 0 mm | - | 589 W/m² | - |
| 1777649104 | 10° C | 60% | 1021.4 hPa | 0 mm | - | 578 W/m² | - |
| 1777648804 | 10° C | 62% | 1021.3 hPa | 0 mm | - | 577 W/m² | - |
| 1777648515 | 9.44° C | 63% | 1021.3 hPa | 0 mm | - | 568 W/m² | - |
| 1777648204 | 9.44° C | 66% | 1021.4 hPa | 0 mm | - | 550 W/m² | - |
| 1777647915 | 8.89° C | 70% | 1021.4 hPa | 0 mm | - | 492 W/m² | - |
| 1777647603 | 8.89° C | 74% | 1021.4 hPa | 0 mm | - | 399 W/m² | - |
* Rain latest hour (hover to see other rain measurements)
** Current wind speed in m/s (hover to see current wind gust speed)